Regional Weather Roundup
Issued by NWS

Home | Current Version | Previous Version | Text Only | Print | Product List | Glossary Off
Versions: 1 2 3 4 5 6 7 8 9 10 11 12 13 14 15 16 17 18 19 20 21 22 23 24 25 26 27 28 29 30 31 32 33 34 35 36 37 38 39 40 41 42 43 44 45 46 47 48 49 50

000
ASUS43 KDMX 011007
RWRIA

WEATHER ROUNDUP FOR IOWA
NATIONAL WEATHER SERVICE DES MOINES IA
500 AM CDT WED OCT 01 2014

NOTE: "FAIR" INDICATES FEW OR NO CLOUDS BELOW 12,000 FEET WITH NO
SIGNIFICANT WEATHER AND/OR OBSTRUCTIONS TO VISIBILITY.

* - THESE STATIONS ARE NOT NWS STATIONS...THUS NOT UNDER NWS
QUALITY CONTROL.  THEY ALSO DO NOT REPORT WEATHER SUCH
AS PRECIPITATION OR FOG.

IAZ001>003-012>014-020>022-031>034-043>046-011100-
   NORTHWEST IOWA

CITY           SKY/WX    TMP DP  RH WIND       PRES   REMARKS
CARROLL *      LGT RAIN  59  59 100 E10G17    29.75F
CHEROKEE *     CLOUDY    61  61 100 CALM      29.72F
DENISON *      MOCLDY    61  61 100 E9G20     29.68F
LE MARS *        N/A     61  59  94 SE5       29.72S
ORANGE CITY *  CLEAR     61  57  88 CALM      29.73S FOG
SHELDON *      PTCLDY    59  59 100 SE7       29.73S
SIOUX CITY     CLOUDY    61  59  93 S3        29.71S FOG
SPENCER        CLOUDY    58  56  93 E5        29.75F
STORM LAKE *   CLOUDY    59  59 100 SE14      29.73F FOG
$$

IAZ055>058-069>071-079>083-090>094-011100-
   SOUTHWEST IOWA

CITY           SKY/WX    TMP DP  RH WIND       PRES   REMARKS
ATLANTIC *     CLOUDY    63  63 100 E5        29.71F
AUDUBON *      LGT RAIN  63  57  82 E8        29.73F
CLARINDA *     LGT RAIN  63  63 100 E3        29.78S
COUNCIL BLFS * CLOUDY    61  61 100 CALM      29.70R
CRESTON *      LGT RAIN  63  63 100 SE12G20   29.77F
HARLAN  *      CLOUDY    61  61 100 E10       29.71F
LAMONI         RAIN      63  61  93 W7        29.82R FOG
RED OAK *      CLOUDY    63  63 100 E6        29.72F
SHENANDOAH *   CLOUDY    63  61  94 SE6       29.74F
$$

IAZ047>049-059>061-072>074-084-011100-
   CENTRAL IOWA

CITY           SKY/WX    TMP DP  RH WIND       PRES   REMARKS
AMES           LGT RAIN  56  56 100 SE10G18   29.81F FOG
ANKENY *       LGT RAIN  57  57 100 E9        29.81S
CHARITON *     CLOUDY    61  57  88 SE10      29.81S
DES MOINES     RAIN      61  58  90 SE10      29.81S FOG
GRINNELL*      CLOUDY    54  50  87 E13G21    29.85S
KNOXVILLE *    CLOUDY    59  55  88 SE10      29.81S
MARSHALLTOWN   LGT RAIN  54  50  86 SE9       29.86R
PELLA *        CLOUDY    57  54  88 SE12      29.85R
PERRY *        HVY RAIN  61  59  94 SE8       29.79R
$$

IAZ004>006-015-016-023>025-035-036-011100-
   NORTH CENTRAL IOWA

CITY           SKY/WX    TMP DP  RH WIND       PRES   REMARKS
ALGONA *       DRIZZLE   54  54 100 SE13G21   29.79F
CLARION *      LGT RAIN  54  52  94 SE13      29.82F
ESTHERVILLE    CLOUDY    56  54  93 SE12      29.78R
FORT DODGE *   CLOUDY    55  52  88 SE7       29.81S
MASON CITY     LGT RAIN  51  50  96 SE9       29.87F FOG
FOREST CITY *  RAIN      52  52 100 SE16      29.83F
IOWA FALLS *   RAIN      54  50  87 E9        29.85F
$$

IAZ007>011-017>019-026>030-037>042-050>054-066-011100-
   NORTHEAST IOWA

CITY           SKY/WX    TMP DP  RH WIND       PRES   REMARKS
CHARLES CITY * CLOUDY    52  46  82 SE5G14    29.90R
CLINTON *      PTCLDY    48  45  87 E9        29.98S
DECORAH *      CLOUDY    48  46  93 SE10G20   29.91F
MONTICELLO *   MOCLDY    52  48  87 SE13      29.92F
OELWEIN *      CLOUDY    52  46  82 SE16G25   29.90S
WATERLOO       CLOUDY    52  47  83 SE12G21   29.86F
$$

IAZ064-065-067-068-078-011100-
   EAST CENTRAL IOWA

CITY           SKY/WX    TMP DP  RH WIND       PRES   REMARKS
IOWA CITY      CLOUDY    53  49  86 E9        29.91F
MT. PLEASANT * PTCLDY    54  48  82 E10       29.89S
MUSCATINE *    CLOUDY    54  48  82 SE10      29.92S
$$

IAZ062-063-075>077-085>089-095>099-011100-
   SOUTHEAST IOWA

CITY           SKY/WX    TMP DP  RH WIND       PRES   REMARKS
BURLINGTON     CLEAR     53  49  86 SE9       29.90S
FAIRFIELD *    CLOUDY    54  50  87 SE13      29.87S
FORT MADISON * CLEAR     55  50  82 E9        29.90S HAZE
KEOKUK *       CLEAR     55  52  88 E10       29.88S
OSKALOOSA *    MOCLDY    55  52  88 SE9       29.86S
CENTERVILLE *  PTCLDY    59  59 100 E7        29.84S
OTTUMWA        CLOUDY    55  51  86 SE13      29.85F
WASHINGTON *   PTCLDY    52  50  93 SE13G18   29.89S
$$

ABBREVIATIONS USED IN REMARKS
   TC - TEMPERATURES IN CELSIUS
  WCI - WIND CHILL INDEX
   HX - HEAT INDEX
  VSB - VISIBILITY
$$



USA.gov is the U.S. government's official web portal to all federal, state and local government web resources and services.